Tracking 25693 objects as of 1-Jul-2022
HD Live streaming from Space Station
objects crossing your sky now

SL-8 DEB

Track SL-8 DEB now!
10-day predictions


NORAD ID: 7560
Int'l Code: 1972-062D
Perigee: 832.5 km
Apogee: 926.5 km
Inclination: 83.0 °
Period: 102.4 minutes
Semi major axis: 7250 km
RCS: 0.0247 m2 (small)
Launch date: August 16, 1972
Source: Commonwealth of Independent States (former USSR) (CIS)
Launch site: PLESETSK MISSILE AND SPACE COMPLEX (PKMTR)

Note: This is SATELLITE DEBRIS
aabbcc
Your satellite tracking list
Your tracking list is empty




NASA's NSSDC Master Catalog

Two Line Element Set (TLE):
1 07560U 72062D   22182.50254626  .00000143  00000-0  76049-4 0  9998
2 07560  82.9744 207.7346 0064788 248.8194 110.6049 14.06207200436165
Source of the keplerian elements: AFSPC